Weather History for Bolton Field, OH

Change the Weather History Date:

Saturday, December 31, 2011

  Actual Average Record
Temperature  
Mean Temperature 40 °F -  
Max Temperature 44 °F 36 °F 60 °F (2006)
Min Temperature 35 °F 24 °F 14 °F (1998)
Degree Days  
Heating Degree Days 26    
Moisture  
Dew Point 38 °F    
Average Humidity 90    
Maximum Humidity 100    
Minimum Humidity 81    
Precipitation  
Precipitation 0.00 in - - ()
Sea Level Pressure  
Sea Level Pressure 29.89 in    
Wind  
Wind Speed 10 mph (SW)    
Max Wind Speed 17 mph    
Max Gust Speed 23 mph    
Visibility 10 miles    
Events Rain    
Averages and records for this station are not official NWS values.
T = Trace of Precipitation, MM = Missing Value Source: NWS Daily Summary

Daily Weather History Graph

Daily Weather History Graph

Search for Another Location

Airport:

Trip Planner

Search our weather history database for the weather conditions in past years. The results will help you decide how hot, cold, wet, or windy it might be!

Date:

Astronomy

Dec. 31, 2011 Rise Set
Actual Time 7:53 AM EST 5:17 PM EST
Civil Twilight 7:23 AM EST 5:47 PM EST
Nautical Twilight 6:49 AM EST 6:21 PM EST
Astronomical Twilight 6:16 AM EST 6:54 PM EST
Moon 11:39 AM EST (12/31) No Moon Set
Length of Visible Light 10h 24m
Length of Day
9h 23m
Waxing Crescent, 45% of the Moon is Illuminated
Dec 31
Waxing Crescent
Jan 1
First Quarter
Jan 9
Full
Jan 16
Last Quarter
Jan 23
New

Hourly Weather History & Observations

Time (EST) Temp. Windchill Dew Point Humidity Pressure Visibility Wind Dir Wind Speed Gust Speed Precip Events Conditions
12:35 AM 44.6 °F 38.8 °F 41.0 °F 87% 29.71 in 10.0 mi SSW 11.5 mph 16.1 mph N/A   Overcast
12:55 AM 44.1 °F 39.0 °F 41.0 °F 89% 29.71 in 10.0 mi SSW 9.2 mph - N/A Rain Light Rain
1:15 AM 44.2 °F 38.8 °F 40.5 °F 87% 29.71 in 10.0 mi SW 10.4 mph - N/A   Overcast
1:35 AM 44.4 °F 36.9 °F 40.1 °F 85% 29.72 in 10.0 mi SW 17.3 mph 20.7 mph N/A   Overcast
1:55 AM 43.7 °F 37.3 °F 39.7 °F 86% 29.73 in 10.0 mi WSW 12.7 mph 21.9 mph N/A Rain Light Rain
2:15 AM 42.8 °F 34.8 °F 39.0 °F 86% 29.74 in 10.0 mi WSW 17.3 mph 23.0 mph N/A   Drizzle
2:35 AM 41.9 °F 35.4 °F 38.8 °F 89% 29.75 in 10.0 mi WSW 11.5 mph - N/A   Light Drizzle
2:55 AM 41.4 °F 34.7 °F 38.3 °F 89% 29.76 in 10.0 mi WSW 11.5 mph - N/A   Overcast
3:35 AM 41.0 °F 34.7 °F 37.6 °F 88% 29.77 in 10.0 mi WSW 10.4 mph - N/A   Overcast
3:55 AM 41.0 °F 34.7 °F 37.4 °F 87% 29.77 in 10.0 mi WSW 10.4 mph 17.3 mph N/A   Overcast
4:15 AM 40.6 °F 34.8 °F 37.4 °F 88% 29.79 in 10.0 mi WSW 9.2 mph - N/A   Overcast
4:35 AM 40.1 °F 32.7 °F 36.5 °F 87% 29.80 in 10.0 mi WSW 12.7 mph 19.6 mph N/A   Overcast
4:55 AM 40.1 °F 32.7 °F 36.5 °F 87% 29.81 in 10.0 mi WSW 12.7 mph 20.7 mph N/A   Overcast
5:15 AM 39.7 °F 31.5 °F 36.7 °F 89% 29.82 in 10.0 mi WSW 15.0 mph 20.7 mph N/A   Overcast
5:35 AM 39.7 °F 32.3 °F 37.0 °F 90% 29.83 in 10.0 mi WSW 12.7 mph - N/A   Overcast
5:55 AM 39.7 °F 32.7 °F 37.4 °F 91% 29.83 in 10.0 mi WSW 11.5 mph 18.4 mph N/A   Overcast
6:15 AM 39.6 °F 32.1 °F 37.6 °F 93% 29.85 in 10.0 mi WSW 12.7 mph 18.4 mph N/A   Overcast
6:35 AM 39.7 °F 33.7 °F 37.8 °F 93% 29.87 in 10.0 mi West 9.2 mph 19.6 mph N/A   Overcast
7:15 AM 40.1 °F 33.6 °F 38.3 °F 93% 29.89 in 10.0 mi WSW 10.4 mph 17.3 mph N/A   Overcast
7:21 AM 39.2 °F 33.0 °F 37.4 °F 93% 29.89 in 10.0 mi WSW 9.2 mph - N/A   Overcast
7:50 AM 39.2 °F 33.0 °F 39.2 °F 100% 29.92 in 7.0 mi WSW 9.2 mph - N/A   Overcast
8:55 AM 39.2 °F 33.0 °F 39.2 °F 100% 29.96 in 5.0 mi WSW 9.2 mph - N/A   Overcast
10:53 AM 41.0 °F 35.8 °F 37.4 °F 87% 30.02 in 7.0 mi West 8.1 mph - N/A   Overcast
12:50 PM 39.2 °F 34.2 °F 37.4 °F 93% 30.03 in 10.0 mi WSW 6.9 mph - N/A   Overcast
1:50 PM 42.8 °F 39.3 °F 37.4 °F 81% 30.03 in 10.0 mi WSW 5.8 mph - N/A   Overcast
4:50 PM 41.0 °F 38.0 °F 37.4 °F 87% 30.05 in 10.0 mi SSW 4.6 mph - N/A   Overcast
5:50 PM 41.0 °F 37.1 °F 37.4 °F 87% 30.07 in 10.0 mi SSW 5.8 mph - N/A   Overcast
6:45 PM 39.2 °F - 37.4 °F 93% 30.08 in 10.0 mi Calm Calm - N/A   Overcast
8:15 PM 40.6 °F 38.6 °F 36.5 °F 85% 30.08 in 10.0 mi South 3.5 mph - N/A   Overcast
8:35 PM 40.5 °F 38.4 °F 36.9 °F 87% 30.07 in 10.0 mi SSE 3.5 mph - N/A   Overcast
8:55 PM 40.1 °F 38.0 °F 36.9 °F 88% 30.06 in 10.0 mi SE 3.5 mph - N/A   Overcast
9:35 PM 37.6 °F 35.1 °F 35.4 °F 92% 30.05 in 10.0 mi ESE 3.5 mph - N/A   Clear
9:55 PM 36.3 °F 33.7 °F 34.9 °F 95% 30.05 in 10.0 mi ESE 3.5 mph - N/A   Clear
10:35 PM 35.6 °F 30.7 °F 34.7 °F 97% 30.04 in 7.0 mi ESE 5.8 mph - N/A   Clear
11:35 PM 36.0 °F 32.1 °F 35.1 °F 97% 30.03 in 7.0 mi SE 4.6 mph - N/A   Clear